Vorticity
7 6 6 2 0 10 1 10 2 4 7 5 6 6 8 9 3 -3 -3 5 13 14 9 10 8 8 11 9 7 8 7 5 4 4 5 7 6 6 6 5 5 5 5 5 5 5 4 4 5
7 6 5 2 11 1 6 6 1 4 5 6 6 12 10 7 5 7 8 8 7 6 4 6 5 8 6 7 11 5 10 7 6 5 6 6 6 4 5 5 4 4 5 5 5 5 5 4 3
6 5 3 2 2 7 6 2 1 4 7 6 5 6 10 3 7 5 8 8 6 6 6 9 7 4 5 8 7 8 5 6 6 6 4 2 6 5 8 7 7 6 6 5 4 3 4 5 5
7 8 8 10 4 8 4 5 3 6 7 7 5 8 4 6 6 6 6 5 5 5 5 8 10 6 6 6 8 6 2 6 8 6 3 3 5 5 4 7 3 5 6 7 6 4 3 4 5
7 8 1 4 4 8 6 2 6 6 7 4 3 8 5 7 6 6 4 6 6 6 5 6 9 8 6 6 6 6 6 5 7 12 3 2 8 4 3 4 10 5 5 5 6 6 4 4 5
6 -2 13 3 5 3 5 6 6 5 6 6 6 4 10 4 6 7 6 6 7 6 7 6 7 8 8 8 8 7 3 1 6 5 5 7 9 8 -5 1 4 3 1 1 4 6 7 5 5
8 3 11 6 1 5 8 5 6 5 6 3 4 5 10 7 4 4 4 6 7 6 6 7 7 6 7 9 9 7 8 6 4 6 10 7 -1 13 11 9 8 5 8 9 -20 -22 -6 -1 9
9 5 6 2 4 7 4 4 5 7 6 5 4 9 -3 4 4 4 6 7 6 7 6 6 6 7 7 7 8 8 8 7 8 6 6 5 9 25 17 12 6 6 8 2 2 1 9 -2 -2
7 4 7 6 6 6 5 6 6 6 6 6 6 7 8 7 9 9 8 7 7 7 7 6 6 7 7 7 8 8 9 8 8 8 8 7 8 14 14 4 6 4 -3 4 10 17 17 21 20
4 6 10 7 5 6 4 6 6 6 5 6 6 9 9 6 5 5 6 7 7 7 7 6 7 6 7 6 7 7 8 8 8 8 8 8 6 15 10 8 7 12 7 7 16 -7 15 51 -7
3 7 7 4 4 2 3 7 6 6 6 5 8 8 5 7 5 6 6 6 6 6 6 5 6 7 6 6 6 7 7 7 7 7 7 8 7 6 16 6 2 4 0 10 9 1 21 10 34
8 8 4 3 3 2 5 5 8 12 9 10 10 5 7 6 6 6 7 5 6 6 6 6 6 6 6 6 6 6 7 7 7 7 7 8 7 7 9 7 1 9 12 2 5 3 7 13 12
7 7 3 4 4 3 5 9 8 10 12 10 8 6 5 7 6 7 7 6 6 6 6 6 6 6 6 7 6 6 6 6 6 6 7 7 7 8 8 6 7 3 6 8 9 2 9 3 -1
12 4 4 4 4 4 7 6 5 11 5 8 7 4 4 4 6 6 6 7 8 8 6 6 7 7 7 7 6 6 6 6 6 6 6 7 7 7 8 10 7 1 10 8 6 3 12 9 6
4 6 5 5 5 4 7 10 12 6 4 5 5 5 3 10 6 5 8 11 9 8 10 6 7 7 7 6 6 6 6 6 6 6 6 6 6 7 7 8 9 9 8 7 7 6 3 3 4
4 6 6 10 13 2 9 -7 5 5 4 2 4 6 7 9 7 9 9 8 10 9 10 9 7 7 7 6 6 6 7 7 6 6 6 6 7 7 7 8 8 8 8 8 9 11 10 11 15
11 -7 13 6 5 10 8 -7 15 3 4 1 6 5 9 5 6 10 4 7 6 5 7 6 7 7 7 7 7 6 7 7 6 6 7 7 7 7 8 8 8 8 9 9 9 8 9 8 7
11 17 13 4 3 -1 2 7 3 9 7 6 6 6 11 7 7 8 6 8 3 6 10 9 8 8 8 7 7 7 7 6 6 7 7 7 7 8 9 9 9 10 10 11 11 11 11 11 10
-8 3 4 4 2 6 13 12 12 9 3 11 7 6 14 11 11 5 9 9 4 5 12 11 7 5 6 7 7 8 7 7 7 8 8 8 9 9 9 10 11 11 12 12 11 11 12 12 12
7 4 3 5 9 3 6 13 12 17 16 23 14 17 15 10 10 3 9 5 9 1 11 9 8 7 7 8 9 10 7 6 7 7 7 8 8 8 9 10 11 11 12 11 11 11 11 11 11
5 3 1 1 7 4 11 16 12 1 3 -5 4 -2 11 11 9 6 5 5 8 1 12 8 7 7 8 10 11 10 8 7 8 7 7 7 9 9 9 9 10 10 10 10 9 9 10 10 11
6 5 6 9 6 9 -3 -1 -1 10 -6 28 24 37 -5 20 -4 13 3 4 2 2 13 7 4 7 9 8 7 7 8 9 9 9 9 8 8 8 8 9 9 9 9 9 8 8 9 9 10
5 4 4 3 2 12 13 24 -2 -3 16 20 13 -8 13 12 7 5 8 7 3 4 13 3 3 8 3 7 5 7 4 5 8 8 7 6 7 6 6 8 8 8 8 8 8 9 8 9 10
0 7 4 4 12 40 23 13 34 22 40 -13 6 15 3 6 16 6 5 9 6 0 7 5 -1 7 5 6 5 1 13 16 12 9 8 7 7 7 6 6 7 7 8 8 8 9 9 9 9
11 6 15 19 19 -4 16 33 -38 -3 -12 -13 21 -5 18 8 7 10 2 8 8 3 1 10 1 9 6 -3 1 9 12 5 6 8 10 10 9 8 7 7 7 7 7 8 8 8 10 9 8
20 7 -44 12 6 0 12 1 -31 10 -13 -16 14 17 9 9 11 10 2 9 9 5 7 12 4 4 0 -4 5 4 14 1 -0 4 10 11 11 10 7 7 8 8 7 8 8 8 9 10 9
10 7 12 -7 7 20 11 12 16 12 6 20 21 6 7 15 7 12 2 7 6 4 9 9 5 2 -10 2 -9 10 6 8 6 2 12 17 14 14 10 7 7 8 7 8 8 9 9 9 8
12 5 25 12 7 10 23 28 -21 -2 -30 20 12 2 19 16 7 10 5 12 6 6 6 9 3 2 -8 23 -6 13 7 5 0 16 17 14 18 16 15 9 7 6 4 8 8 12 5 -11 12
1 -2 -8 -6 -3 -8 20 7 2 19 -12 -5 11 12 14 10 10 15 7 10 6 6 10 7 5 -5 15 -3 9 14 -2 1 15 20 17 16 14 16 16 16 10 16 6 8 7 -6 -10 46 1
17 15 24 -36 16 -3 -4 -8 -61 -29 -23 22 24 36 15 20 11 12 6 9 9 12 3 -4 6 10 14 2 10 2 2 18 19 11 10 10 12 12 12 17 15 7 1 16 8 19 3 3 7
Height
3159 3160 3160 3162 3166 3163 3163 3165 3165 3164 3164 3163 3163 3164 3164 3164 3163 3167 3163 3162 3162 3162 3161 3161 3161 3160 3160 3160 3160 3161 3162 3163 3163 3163 3162 3163 3163 3162 3163 3164 3164 3162 3161 3161 3161 3160 3159 3159 3159
3159 3160 3161 3161 3163 3162 3164 3164 3164 3164 3163 3163 3163 3163 3163 3163 3162 3161 3162 3161 3160 3160 3161 3161 3161 3160 3159 3160 3160 3161 3163 3162 3162 3162 3162 3162 3162 3162 3163 3163 3163 3163 3163 3162 3161 3161 3160 3160 3160
3159 3159 3161 3161 3161 3162 3163 3163 3163 3163 3163 3162 3161 3162 3162 3162 3162 3161 3161 3160 3161 3161 3162 3161 3160 3160 3160 3160 3160 3160 3161 3161 3162 3163 3163 3163 3164 3164 3163 3162 3162 3162 3163 3163 3162 3161 3161 3161 3160
3160 3160 3162 3161 3161 3162 3162 3162 3163 3163 3162 3162 3162 3161 3162 3162 3162 3161 3160 3159 3160 3161 3161 3160 3159 3159 3160 3159 3159 3160 3161 3161 3161 3162 3162 3162 3163 3163 3163 3160 3160 3162 3162 3162 3162 3162 3160 3160 3161
3160 3160 3161 3161 3161 3162 3162 3162 3162 3162 3162 3162 3162 3162 3161 3161 3161 3160 3159 3160 3160 3160 3159 3159 3158 3159 3159 3158 3158 3159 3160 3159 3160 3161 3161 3161 3160 3161 3161 3162 3162 3162 3162 3162 3162 3162 3161 3160 3160
3159 3160 3160 3161 3161 3161 3162 3162 3162 3162 3162 3162 3162 3161 3161 3160 3160 3159 3159 3160 3160 3160 3160 3159 3159 3159 3158 3158 3159 3159 3158 3158 3158 3159 3159 3159 3160 3160 3160 3160 3162 3162 3162 3161 3161 3161 3162 3161 3159
3159 3159 3160 3160 3161 3161 3161 3161 3161 3161 3161 3161 3161 3161 3161 3160 3159 3159 3159 3159 3160 3159 3159 3158 3158 3157 3157 3157 3158 3157 3157 3157 3157 3158 3157 3157 3156 3156 3156 3157 3159 3160 3160 3160 3159 3159 3160 3162 3160
3158 3159 3159 3160 3160 3160 3160 3160 3160 3160 3161 3160 3160 3160 3160 3159 3158 3158 3159 3159 3159 3159 3157 3156 3157 3156 3156 3156 3156 3155 3156 3156 3155 3156 3155 3155 3154 3152 3152 3155 3156 3157 3158 3158 3158 3157 3158 3158 3159
3157 3158 3157 3158 3159 3159 3158 3158 3158 3158 3158 3158 3158 3158 3158 3157 3157 3157 3157 3157 3157 3157 3156 3156 3155 3156 3156 3155 3155 3154 3154 3153 3153 3153 3152 3152 3150 3150 3150 3151 3152 3154 3154 3154 3154 3154 3152 3152 3154
3156 3157 3157 3157 3157 3157 3157 3157 3157 3157 3156 3156 3156 3156 3156 3156 3156 3156 3155 3155 3156 3156 3155 3154 3154 3154 3154 3153 3153 3153 3153 3152 3151 3150 3149 3149 3148 3148 3148 3148 3149 3150 3151 3152 3150 3150 3149 3147 3148
3155 3156 3156 3156 3156 3156 3155 3155 3154 3154 3154 3155 3155 3154 3154 3154 3154 3154 3153 3153 3153 3153 3153 3153 3154 3153 3152 3151 3152 3151 3151 3150 3149 3148 3146 3146 3146 3146 3146 3146 3146 3146 3146 3145 3145 3146 3144 3145 3146
3154 3154 3154 3154 3154 3154 3153 3153 3152 3152 3152 3152 3152 3152 3152 3152 3152 3152 3151 3151 3151 3151 3151 3152 3151 3152 3151 3150 3150 3149 3148 3148 3147 3146 3145 3145 3144 3144 3144 3144 3143 3143 3143 3142 3142 3141 3141 3142 3142
3153 3153 3153 3153 3153 3152 3151 3151 3150 3150 3149 3149 3149 3150 3150 3150 3150 3149 3150 3149 3149 3148 3149 3149 3149 3149 3150 3149 3147 3146 3145 3144 3144 3143 3143 3142 3141 3140 3140 3140 3140 3140 3140 3139 3139 3138 3138 3138 3138
3152 3152 3152 3151 3151 3151 3150 3148 3148 3148 3147 3147 3147 3148 3148 3147 3147 3147 3147 3146 3146 3146 3146 3145 3146 3146 3146 3146 3144 3143 3142 3142 3142 3141 3140 3139 3138 3137 3137 3136 3136 3136 3135 3135 3135 3135 3134 3134 3133
3150 3151 3150 3150 3150 3149 3148 3147 3146 3145 3145 3145 3145 3146 3146 3145 3144 3144 3143 3144 3144 3143 3143 3142 3142 3142 3142 3141 3141 3140 3140 3139 3138 3138 3137 3137 3135 3134 3133 3133 3132 3132 3131 3131 3131 3131 3131 3131 3130
3148 3149 3149 3148 3147 3148 3148 3146 3144 3144 3143 3143 3143 3142 3142 3141 3141 3141 3141 3142 3141 3140 3139 3138 3137 3138 3138 3138 3138 3138 3136 3135 3134 3133 3132 3132 3131 3130 3129 3128 3127 3126 3126 3125 3125 3125 3125 3125 3125
3147 3147 3147 3147 3146 3145 3145 3144 3143 3142 3141 3140 3140 3139 3139 3138 3138 3137 3136 3137 3137 3136 3135 3135 3135 3134 3134 3134 3134 3133 3132 3131 3130 3129 3129 3128 3127 3125 3124 3123 3122 3121 3120 3119 3118 3118 3118 3117 3117
3146 3146 3145 3145 3145 3143 3142 3139 3141 3140 3136 3137 3135 3134 3134 3134 3134 3134 3134 3134 3135 3135 3134 3132 3132 3132 3131 3131 3130 3129 3128 3127 3126 3125 3124 3123 3122 3121 3120 3118 3116 3115 3114 3113 3112 3112 3111 3112 3111
3144 3144 3144 3143 3141 3139 3137 3134 3136 3135 3130 3130 3129 3130 3130 3130 3131 3131 3132 3133 3133 3131 3130 3129 3128 3127 3127 3126 3125 3125 3125 3124 3122 3121 3120 3119 3119 3117 3116 3115 3114 3112 3110 3109 3107 3107 3106 3106 3106
3141 3141 3141 3140 3139 3137 3134 3130 3131 3129 3128 3125 3125 3125 3126 3126 3126 3127 3128 3128 3128 3127 3126 3125 3124 3124 3123 3123 3122 3122 3120 3119 3119 3118 3117 3115 3113 3112 3111 3109 3108 3107 3106 3104 3103 3102 3101 3101 3101
3137 3137 3137 3137 3134 3132 3128 3125 3125 3126 3125 3123 3122 3121 3122 3122 3122 3122 3123 3123 3123 3123 3122 3121 3121 3120 3120 3119 3119 3118 3117 3116 3115 3114 3112 3110 3109 3107 3105 3105 3103 3102 3102 3101 3099 3098 3097 3096 3097
3133 3134 3133 3132 3131 3130 3127 3121 3117 3120 3119 3118 3117 3117 3119 3118 3118 3117 3117 3118 3119 3119 3118 3118 3117 3117 3116 3115 3114 3113 3112 3111 3109 3108 3107 3105 3104 3102 3100 3098 3098 3098 3096 3095 3095 3095 3093 3092 3092
3131 3131 3131 3130 3128 3126 3123 3122 3112 3112 3112 3112 3113 3114 3114 3114 3113 3112 3112 3112 3113 3113 3114 3113 3112 3111 3110 3111 3111 3109 3108 3106 3104 3103 3101 3100 3098 3096 3095 3094 3093 3092 3091 3091 3088 3088 3088 3088 3088
3124 3126 3126 3125 3124 3120 3114 3114 3107 3107 3107 3108 3109 3109 3108 3107 3107 3107 3107 3107 3107 3107 3107 3107 3107 3106 3105 3105 3105 3104 3102 3100 3099 3097 3095 3093 3092 3091 3090 3089 3088 3087 3087 3086 3085 3083 3082 3083 3082
3120 3122 3122 3121 3118 3108 3106 3106 3099 3103 3103 3104 3103 3103 3102 3100 3100 3100 3101 3101 3101 3101 3102 3101 3101 3101 3101 3100 3099 3098 3097 3095 3094 3091 3089 3086 3084 3083 3082 3082 3081 3081 3081 3081 3080 3078 3078 3078 3077
3115 3117 3117 3117 3113 3102 3100 3088 3082 3091 3095 3095 3094 3094 3094 3094 3095 3095 3095 3095 3095 3096 3096 3095 3095 3095 3095 3094 3093 3092 3090 3087 3086 3084 3082 3079 3077 3075 3074 3074 3073 3073 3073 3074 3073 3072 3071 3072 3072
3109 3109 3112 3110 3104 3100 3088 3079 3078 3084 3085 3085 3085 3086 3088 3087 3086 3087 3088 3089 3089 3090 3089 3089 3089 3089 3088 3087 3085 3085 3082 3079 3077 3075 3072 3070 3068 3066 3065 3066 3066 3066 3067 3066 3066 3066 3065 3064 3066
3101 3104 3105 3106 3105 3097 3077 3072 3072 3075 3079 3081 3083 3083 3082 3082 3082 3082 3082 3082 3082 3082 3082 3083 3083 3083 3082 3080 3078 3076 3073 3071 3068 3064 3062 3060 3058 3057 3057 3057 3058 3059 3059 3059 3059 3058 3057 3057 3059
3096 3094 3098 3098 3092 3087 3075 3060 3065 3070 3072 3075 3079 3079 3079 3078 3077 3078 3078 3077 3076 3076 3076 3077 3077 3077 3075 3072 3069 3066 3064 3060 3056 3054 3052 3050 3050 3049 3048 3048 3049 3049 3050 3050 3049 3047 3046 3048 3052
3087 3086 3087 3087 3082 3078 3073 3037 3061 3064 3066 3068 3069 3072 3073 3073 3073 3072 3071 3071 3071 3071 3072 3072 3071 3069 3067 3064 3062 3058 3055 3051 3048 3046 3044 3043 3042 3041 3040 3040 3041 3040 3041 3040 3039 3037 3038 3039 3041